FW1406 Corleone IT current weather conditions

sailwx.info

Wind from 322 at 4 knots gusting 13

Air temperature 20.0° C
Dewpoint 1.4° C

Last reported at 2020-Oct-01 14:46 UTC.
Time now 2020-Oct-01 15:36 UTC

Location: N 37°46' E 013°18'.
View on Google Maps.

See reports from other nearby stations

  
Tides and Currents Weather Stations Pressure Air Temp Water Temp Dewpoint Dewpoint Depression Visibility Wind Speed Wind Dir Waves Ship Positions
date/time (UTC)wind fromknots sea level pressurealtimeterstation pressurevisibilityair tempwater tempwave heightnotes
2020-Oct-01 14:46 322 4 gusting 13 20.0
2020-Oct-01 14:31 302 3 gusting 8 20.6
2020-Oct-01 14:16 311 7 gusting 13 20.6
2020-Oct-01 13:45 288 6 gusting 12 21.1
2020-Oct-01 13:30 317 6 gusting 14 22.8
2020-Oct-01 13:15 319 6 gusting 12 23.3
2020-Oct-01 12:46 326 9 gusting 14 23.3
2020-Oct-01 12:30 333 4 gusting 12 22.8
2020-Oct-01 12:15 322 7 gusting 13 22.8
2020-Oct-01 11:47 334 6 gusting 15 23.3
2020-Oct-01 11:30 316 5 gusting 17 23.3
2020-Oct-01 11:15 321 5 gusting 13 22.8
2020-Oct-01 10:45 314 5 gusting 15 22.8
2020-Oct-01 10:31 301 8 gusting 13 22.2
2020-Oct-01 10:15 336 4 gusting 13 22.2
2020-Oct-01 09:45 334 5 gusting 10 21.7
2020-Oct-01 09:31 325 2 gusting 9 21.7
2020-Oct-01 09:15 293 21.7
2020-Oct-01 08:45 344 4 gusting 12 20.6
2020-Oct-01 08:31 296 0 gusting 9 20.6
2020-Oct-01 08:17 005 20.0
2020-Oct-01 07:46 350 19.4
2020-Oct-01 07:31 319 3 gusting 7 18.3
2020-Oct-01 07:16 317 18.3
2020-Oct-01 06:46 312 18.3
2020-Oct-01 06:31 304 17.8
2020-Oct-01 06:15 250 17.8
2020-Oct-01 05:45 306 1 gusting 9 17.8
2020-Oct-01 05:30 218 17.8
2020-Oct-01 05:15 304 17.8
2020-Oct-01 04:46 298 17.8
2020-Oct-01 04:31 254 17.2
2020-Oct-01 04:16 329 17.2
2020-Oct-01 03:46 306 17.2
2020-Oct-01 03:31 094 17.2
2020-Oct-01 03:16 265 2 gusting 11 17.2
2020-Oct-01 02:46 273 17.2
2020-Oct-01 02:30 246 17.2
2020-Oct-01 02:16 294 1 gusting 8 17.2
2020-Oct-01 01:45 259 5 gusting 9 17.2
2020-Oct-01 01:30 266 17.2
2020-Oct-01 01:15 261 2 gusting 10 17.2
2020-Oct-01 01:02 275 3 gusting 9 17.2
2020-Oct-01 00:15 280 0 gusting 7 17.2
2020-Oct-01 00:02 249 0 gusting 9 17.2
2020-Sep-30 23:46 259 2 gusting 11 17.2
2020-Sep-30 23:31 238 0 gusting 11 17.2
2020-Sep-30 23:15 243 16.7
2020-Sep-30 23:01 252 0 gusting 6 17.2
2020-Sep-30 22:45 264 0 gusting 7 17.2
2020-Sep-30 22:31 257 17.2
2020-Sep-30 22:17 246 16.7
2020-Sep-30 22:01 239 16.7
2020-Sep-30 21:45 257 16.7
2020-Sep-30 21:31 259 17.2
2020-Sep-30 21:16 255 16.7
2020-Sep-30 21:01 287 16.7
2020-Sep-30 20:45 261 16.7
2020-Sep-30 20:30 266 16.7
2020-Sep-30 20:16 286 17.2
2020-Sep-30 20:00 250 16.7
2020-Sep-30 19:46 321 17.2
2020-Sep-30 19:30 321 17.2
2020-Sep-30 19:16 323 17.8
2020-Sep-30 19:00 326 17.8
2020-Sep-30 18:46 305 17.8
2020-Sep-30 18:30 309 17.8
2020-Sep-30 18:16 255 17.8
2020-Sep-30 18:00 278 17.8
2020-Sep-30 17:45 243 17.2
2020-Sep-30 17:30 272 17.8
2020-Sep-30 15:47 047 2 gusting 9 21.7
2020-Sep-30 15:32 024 4 gusting 11 21.7
2020-Sep-30 15:15 035 6 gusting 10 21.7
2020-Sep-30 15:00 031 7 gusting 12 21.1
2020-Sep-30 14:46 039 6 gusting 11 21.7
2020-Sep-30 14:30 037 1 gusting 9 21.7
2020-Sep-30 14:15 042 3 gusting 10 23.9
2020-Sep-30 14:00 061 4 gusting 10 23.3
2020-Sep-30 13:45 038 23.3
2020-Sep-30 13:31 044 2 gusting 9 22.2
2020-Sep-30 13:17 047 6 gusting 12 23.3
2020-Sep-30 13:01 033 0 gusting 10 22.8
2020-Sep-30 12:45 028 21.7
2020-Sep-30 12:31 086 21.1
2020-Sep-30 12:16 034 22.2
2020-Sep-30 12:01 057 22.2
2020-Sep-30 11:46 015 0 gusting 6 21.1
2020-Sep-30 11:30 049 3 gusting 9 21.7
2020-Sep-30 11:16 049 21.1
2020-Sep-30 11:00 070 21.1
2020-Sep-30 10:45 021 21.1
2020-Sep-30 10:30 355 20.0
2020-Sep-30 10:16 009 19.4
2020-Sep-30 10:03 030 19.4
2020-Sep-30 09:46 059 18.9
2020-Sep-30 09:31 029 18.9
2020-Sep-30 09:16 336 18.3
2020-Sep-30 09:01 050 17.8
2020-Sep-30 08:46 015 17.2
2020-Sep-30 08:30 063 17.8
2020-Sep-30 08:15 323 17.2
2020-Sep-30 08:00 342 17.2
2020-Sep-30 07:46 041 17.2
2020-Sep-30 07:30 060 17.2
2020-Sep-30 07:15